Temp_Advection
nan nan nan nan nan nan nan nan nan nan nan nan nan nan nan nan nan nan nan nan nan nan nan nan nan nan nan nan nan nan nan nan nan nan nan nan nan nan nan nan nan nan nan nan nan nan nan nan nan nan nan nan nan nan nan nan nan nan nan nan nan nan nan nan nan nan nan nan nan
nan -0 -0 -0 -0 -0 -0 -0 -0 -0 -0 -0 -0 -0 -0 -1 -1 -1 -1 -1 -1 -1 -1 -1 -1 -1 -1 -1 -1 -0 0 -0 -0 -1 -1 -0 0 1 1 1 1 1 0 1 1 0 1 0 0 0 -0 -0 -0 0 0 0 0 0 0 0 0 0 0 0 0 0 0 0 nan
nan -0 -0 -0 -0 -0 -0 -0 -0 -0 -0 -0 -0 -0 -0 -0 -0 -0 -1 -1 -0 -0 -0 -0 -0 -0 -0 -0 -0 0 0 -0 -0 -1 -0 -0 0 1 1 1 1 0 1 1 1 1 1 0 0 -0 -0 -0 -0 -0 0 0 0 0 0 0 0 0 -0 -0 0 0 0 0 nan
nan -0 -0 -0 -0 -0 -0 -0 -0 -0 -0 -0 -0 0 0 0 0 -0 -0 0 0 -0 -0 -0 -0 -0 -0 -0 0 0 -0 -0 -0 -0 -0 0 1 1 1 1 1 0 0 1 1 1 1 0 -0 -0 -1 -0 -0 0 0 0 0 0 0 0 -0 -0 -0 -0 0 0 0 -0 nan
nan -0 -0 -0 -0 -0 -0 -0 -0 -0 -0 -0 -0 -0 -0 0 0 0 0 0 -0 -0 -0 -0 0 -0 -0 -0 -0 -0 -0 -0 -0 -0 0 1 1 1 1 1 1 0 0 1 1 1 0 0 -0 -0 0 0 0 0 0 0 0 0 0 0 0 0 0 0 0 0 0 -0 nan
nan -0 -0 -0 -0 -0 -0 -0 -0 -0 -0 -0 -0 -0 -0 -0 -0 -0 -0 -0 -0 -0 0 0 0 0 0 0 0 0 0 0 0 0 1 1 1 1 1 1 1 1 1 1 1 0 0 0 0 0 1 0 0 0 0 0 0 0 0 0 0 0 0 0 0 0 0 0 nan
nan -0 -0 -0 -0 -0 -0 -0 -0 -0 -0 -0 -0 -0 -0 -0 -0 -0 -0 -0 -0 0 0 0 0 0 0 0 0 0 0 0 1 1 1 1 1 1 1 1 1 1 1 1 1 1 0 1 1 0 0 0 0 0 0 0 0 0 0 0 0 -0 -0 -0 0 0 0 0 nan
nan -0 -0 -0 -0 -0 -0 -0 -0 -0 -0 -0 -0 -0 -0 -0 -1 -0 -0 -0 -0 -0 -0 -0 -0 -0 0 0 0 0 0 0 1 1 1 1 1 1 1 1 1 1 1 1 1 1 1 1 0 0 0 0 0 0 0 0 0 0 0 0 0 -0 -0 -0 0 0 0 0 nan
nan -0 -0 -0 -0 -0 -0 -0 -0 -0 -0 -0 -0 -0 -0 -0 -0 -0 -0 -0 -0 -0 -0 -0 -0 -0 0 0 0 0 0 0 0 1 1 1 1 1 1 1 0 1 1 1 1 1 1 0 -0 -0 0 0 0 0 0 0 -0 0 0 0 0 0 -0 0 0 1 1 0 nan
nan -0 -0 -0 -0 -0 -0 -0 -0 -0 -0 -0 -0 -0 -0 -0 -0 -0 -0 -0 -0 -0 -0 -0 -0 -0 -0 0 0 0 0 0 0 0 0 1 1 0 0 0 0 0 1 1 1 1 0 -0 -0 -0 0 0 0 0 0 -0 0 0 0 1 0 0 0 0 1 1 0 0 nan
nan -0 -0 -0 -0 -0 -0 -0 -0 -0 -0 -0 -0 -0 -0 -0 -0 -0 -0 0 0 -0 -0 -0 -0 -0 -0 -0 0 0 0 0 0 0 0 -0 -0 -0 -0 -0 0 0 1 1 1 0 -0 -0 -0 0 0 0 0 0 0 0 0 1 1 1 0 0 0 1 1 1 0 -0 nan
nan -0 -0 -0 -0 -0 -0 -0 -0 -0 -0 -0 -0 -0 -0 -0 -0 0 0 0 0 -0 -0 0 -0 -0 -0 0 0 0 0 0 -0 -0 -0 -0 -0 -0 -0 -0 0 1 1 1 0 -0 -0 -0 -0 0 0 0 0 0 0 0 1 1 1 0 0 0 1 1 1 0 -0 -0 nan
nan -0 -0 -0 0 0 0 -0 -0 -0 -0 -0 -0 -0 -0 -0 0 0 0 0 0 0 0 0 0 -0 0 0 0 0 0 0 -0 -0 -0 -0 -0 -0 -0 0 0 1 1 0 0 -0 -0 -0 0 0 0 0 0 0 0 0 1 1 1 0 0 0 0 0 0 -0 -0 -0 nan
nan -0 -0 0 0 0 0 -0 -0 -0 -0 -0 -0 -0 -0 -0 0 0 0 0 0 0 0 0 0 0 0 0 0 0 0 0 0 -0 -0 -0 -0 -0 -0 0 0 0 0 0 0 -0 -0 -0 0 0 0 0 -0 0 0 0 1 1 0 0 -0 -0 0 0 -0 -0 -0 -0 nan
nan -0 -0 -0 -0 0 0 0 -0 -0 -0 -0 -0 -0 -0 -0 -0 -0 0 0 0 0 0 -0 -0 -0 0 0 0 0 0 0 0 0 0 0 0 0 0 0 0 0 0 0 -0 -1 -1 -0 0 0 0 0 0 0 0 0 1 1 0 0 -0 0 0 0 -0 0 -0 -0 nan
nan -0 -0 -0 -0 -0 -0 0 -0 -0 -0 -0 -0 -0 -0 -0 -0 -0 0 0 0 0 -0 -0 -0 -0 0 0 0 0 0 0 0 0 0 0 0 0 0 0 0 0 0 -0 -0 -1 -0 -0 0 1 0 0 0 0 0 1 1 1 0 0 0 0 0 0 0 0 -0 -0 nan
nan -0 -0 -0 0 -0 -0 -0 -0 0 -0 -0 -0 -0 0 -0 -0 -0 -0 0 0 0 -0 -0 -0 -0 0 0 0 0 0 0 0 0 0 0 0 0 0 0 0 0 -0 -0 -0 -0 0 0 1 1 0 0 0 0 1 1 1 0 0 -0 0 -0 -0 0 0 0 -0 -0 nan
nan -0 -0 0 0 0 -0 -0 -0 -0 -0 -0 -0 -0 -0 -0 -0 -0 -0 -0 0 -0 -0 -1 -0 0 0 0 0 0 0 0 0 0 1 1 1 1 1 1 0 0 -0 -0 0 0 0 0 0 0 0 0 0 1 1 0 0 -0 -0 -0 -0 -0 -0 -0 -0 -0 -0 -0 nan
nan -0 0 0 0 0 -0 -0 -0 -0 -0 -0 -0 -0 -0 -0 -0 -0 -0 -0 0 -0 -0 -0 -0 0 0 0 0 0 1 1 1 1 1 1 1 1 1 1 1 0 1 1 1 1 0 -0 -0 0 0 0 0 0 0 0 -0 -0 -0 -0 -0 -0 -0 -0 -0 -0 -0 -0 nan
nan 0 0 0 -0 -0 -0 -0 -0 -0 -0 -0 -0 -0 -0 -0 -0 -0 -0 -0 0 -0 -0 -0 -0 0 0 0 1 1 1 1 1 1 1 1 1 1 1 1 1 1 1 1 1 -0 -0 -0 -0 0 0 0 0 0 0 -0 -0 -0 -0 -0 -0 -0 -0 -0 -0 -0 -0 -0 nan
nan 0 0 0 -0 -0 -0 -0 -0 -0 -0 -0 -0 -0 -0 -0 -0 -0 -0 0 0 -0 -0 -0 0 0 0 0 0 0 1 1 1 1 1 1 1 1 1 1 1 1 1 0 -0 -1 -0 -0 0 0 0 0 0 0 0 -0 -0 -0 -0 -0 -0 -0 0 0 -0 -0 -0 -0 nan
nan 0 0 0 -0 -0 -0 -0 -0 -0 -0 -0 -0 -0 -0 -0 -0 -0 -0 0 -0 -0 -0 0 -0 -0 -0 0 0 0 0 1 1 0 0 0 1 1 1 1 0 -0 -0 -1 -1 -0 -0 -0 0 0 0 0 0 0 -0 -0 -0 -0 -0 -0 0 0 0 0 -0 -0 -0 0 nan
nan -0 0 0 -0 -0 -0 -0 -0 -0 -0 -0 -0 -0 -0 -0 -0 -0 0 0 -0 -0 0 -0 -0 -0 -0 0 0 0 0 0 0 0 0 0 0 0 0 -0 -1 -1 -1 -1 -1 -0 -0 -0 0 0 0 0 0 0 -0 -0 -0 -0 -0 0 0 0 0 -0 -0 -0 0 0 nan
nan -0 -0 -0 0 -0 -0 -0 -0 -0 -0 -0 -0 -0 0 0 0 0 0 0 0 0 0 -0 -1 -0 0 1 1 0 0 0 0 0 0 0 -0 -1 -1 -1 -1 -0 -0 -0 -1 -0 -0 0 0 0 0 0 0 -0 -0 -0 0 -0 -0 -0 -0 -0 -0 -0 -0 -0 0 0 nan
nan -0 -0 0 0 0 0 0 0 0 -0 0 0 0 0 0 0 0 0 0 0 0 0 -0 -1 -0 0 1 1 1 1 0 0 -0 -1 -1 -1 -1 -0 -0 0 0 0 -0 -0 -0 0 0 1 0 0 0 0 -0 -0 0 0 0 0 0 0 -0 -0 -0 -0 0 0 0 nan
nan -0 0 0 0 1 1 0 0 0 0 0 0 0 0 0 0 0 0 0 0 0 0 -0 -0 0 1 1 1 1 1 1 -0 -1 -1 -2 -1 -0 0 0 0 0 -0 -0 -0 0 1 1 1 1 0 0 0 -0 0 0 0 0 0 0 0 -0 -0 -0 0 0 1 1 nan
nan 0 0 0 0 1 1 1 1 0 0 0 0 0 0 0 0 0 0 0 0 0 0 -0 -0 0 1 1 1 1 1 0 -1 -1 -1 -1 0 1 1 0 0 -0 -0 -0 0 1 1 1 1 0 0 0 0 0 0 0 0 0 0 0 0 -0 -0 -0 0 1 1 1 nan
nan 0 0 0 1 0 1 1 1 0 0 0 0 0 0 0 0 0 0 0 0 0 -0 -0 -0 1 1 1 1 1 0 -1 -1 -1 -0 0 1 1 1 0 0 -0 -0 -0 0 1 0 0 0 0 0 1 0 0 0 0 0 0 -0 -0 -0 -0 -0 0 1 1 1 0 nan
nan 0 0 0 0 0 0 0 0 0 0 0 0 0 0 0 0 0 0 0 0 0 -0 -0 0 1 1 1 1 0 -0 -1 -1 -0 0 1 1 1 1 1 0 -0 -0 0 0 0 0 0 0 0 1 1 0 0 0 0 0 -0 -0 -0 -0 -0 -0 0 1 1 1 0 nan
nan 0 0 0 0 0 0 0 0 0 0 0 0 0 0 0 0 0 0 0 0 0 -0 -0 0 1 1 1 0 -0 -1 -1 -0 0 0 1 1 1 1 1 0 -0 -0 0 0 0 0 0 0 0 1 0 0 0 1 1 0 -0 -0 -1 -0 -0 0 1 1 1 0 0 nan
nan 0 0 0 0 0 0 0 0 0 0 0 0 0 0 1 1 1 1 1 0 -0 -0 -0 0 1 1 0 -0 -0 -0 -0 0 0 0 1 1 1 1 0 -0 -0 0 0 0 0 0 0 0 0 0 0 1 1 1 0 0 -0 -1 -0 -0 0 0 1 0 0 0 0 nan
nan 0 0 0 0 0 0 0 0 0 0 0 0 0 0 1 1 1 1 1 0 -0 -0 -0 0 1 0 0 -0 -0 0 0 0 0 1 1 1 1 1 0 -0 -0 0 0 1 0 0 0 0 0 0 1 1 1 1 0 -0 -0 -0 -0 0 1 1 1 0 0 0 0 nan
nan 0 0 0 0 0 1 1 0 0 0 1 1 0 0 0 0 1 1 1 0 -0 -0 -0 0 0 -0 -0 -0 0 0 0 0 1 1 1 1 1 0 0 0 0 0 1 1 0 0 1 0 0 1 1 1 1 0 -0 -0 -0 -0 0 0 1 1 1 0 0 0 0 nan
nan -0 0 0 0 1 1 1 0 0 0 1 0 0 -0 -0 0 0 0 0 0 0 0 0 -0 -0 -0 0 0 0 0 0 0 1 1 1 1 0 0 0 0 0 0 0 0 0 1 1 0 0 1 1 1 0 -0 -1 -0 -0 0 0 0 1 1 0 0 1 1 1 nan
nan -0 -0 0 0 0 0 0 0 0 0 0 0 0 -0 -0 -0 -0 0 0 0 0 0 0 0 0 0 0 0 0 0 0 0 0 0 1 0 0 0 0 0 0 0 0 0 1 1 0 0 0 0 0 0 -0 -0 -0 -0 0 0 0 0 0 0 0 1 1 1 1 nan
nan -0 -0 -0 -0 -0 -0 -0 0 0 0 0 0 -0 0 0 0 0 0 0 0 0 0 0 0 0 0 0 0 0 0 -0 0 0 0 0 0 0 0 0 0 0 0 0 1 1 1 0 0 0 0 0 0 -0 -0 -0 -0 0 0 0 0 0 1 1 1 1 1 1 nan
nan 0 -0 -0 -1 -1 -1 -0 -0 0 0 0 -0 0 0 0 0 1 1 0 0 -0 -0 -0 0 0 0 0 0 0 0 0 0 1 1 0 0 0 0 0 0 0 0 0 1 1 0 0 0 0 0 0 0 -0 -0 -0 0 0 0 0 1 1 1 1 1 1 1 0 nan
nan 0 0 -0 -1 -1 -1 -0 -0 0 0 0 0 0 0 0 0 0 0 -0 -0 -0 -0 -0 -0 -0 -0 -0 0 0 1 1 1 1 1 0 0 0 0 0 0 0 0 0 1 1 0 0 0 1 1 1 0 -0 -0 -0 -0 0 0 0 0 1 1 1 1 1 0 0 nan
nan -0 -0 -0 -1 -1 -0 0 0 0 0 0 0 0 0 -0 0 0 -0 -0 -0 0 0 0 -0 -0 -0 -0 0 1 1 1 1 1 1 0 0 0 0 0 0 0 0 0 1 1 0 0 1 1 1 1 0 0 -0 -0 -0 0 0 0 0 0 0 1 1 0 0 0 nan
nan -1 -0 -1 -1 -0 0 1 1 1 1 1 0 0 -0 -0 -0 0 -0 0 0 0 0 0 0 -0 -0 0 0 1 1 1 1 1 0 0 0 0 0 0 0 0 0 0 1 1 1 1 1 1 1 0 0 0 -0 -0 0 0 0 0 0 0 0 0 0 0 0 0 nan
nan nan nan nan nan nan nan nan nan nan nan nan nan nan nan nan nan nan nan nan nan nan nan nan nan nan nan nan nan nan nan nan nan nan nan nan nan nan nan nan nan nan nan nan nan nan nan nan nan nan nan nan nan nan nan nan nan nan nan nan nan nan nan nan nan nan nan nan nan
Wind_Speed
19 20 20 21 21 20 19 19 18 18 19 19 19 20 21 21 21 21 20 20 20 21 22 22 23 24 25 24 24 24 25 26 26 26 25 25 24 23 23 23 23 22 21 21 21 21 20 21 21 20 20 20 19 19 18 17 17 17 16 16 16 15 14 14 14 14 15 16 17
18 19 20 21 21 20 19 19 18 18 18 18 17 18 18 19 19 19 19 19 19 19 19 20 21 22 23 23 23 23 24 25 26 25 25 24 24 24 24 24 23 23 22 22 21 21 21 21 21 22 21 21 20 19 18 17 16 16 16 15 15 14 13 12 12 13 14 16 17
17 18 20 21 21 20 20 19 19 18 18 17 16 16 17 17 17 17 17 17 17 17 18 19 20 20 21 21 22 23 24 24 25 25 24 24 24 24 24 24 24 23 23 22 22 21 21 22 23 23 23 22 20 19 18 17 16 15 15 15 14 13 12 12 12 13 15 17 17
17 18 20 21 21 21 21 20 19 18 18 17 17 16 16 16 16 16 16 15 16 17 18 18 19 20 20 21 21 22 22 23 23 23 24 24 24 24 24 24 24 24 23 22 22 21 21 22 23 24 23 22 20 19 18 17 16 15 15 15 15 14 14 13 14 16 17 18 17
17 18 20 20 21 22 21 21 20 19 18 18 17 17 17 17 16 16 15 15 16 17 17 18 19 19 20 20 20 21 21 21 22 22 23 23 24 24 24 24 24 23 23 22 22 21 22 23 24 24 23 22 20 19 18 17 17 16 16 16 16 16 16 17 17 18 18 18 17
18 18 19 20 21 21 21 21 20 20 19 19 18 18 18 18 17 17 16 16 16 16 17 17 18 19 19 19 19 19 20 20 21 22 22 23 23 24 24 24 24 23 22 22 21 21 22 23 24 23 22 21 20 19 18 18 18 17 17 17 18 18 19 19 19 19 19 19 19
18 18 19 19 20 20 20 20 20 20 20 19 19 19 19 19 19 18 18 17 17 17 17 17 18 18 18 18 18 18 18 19 20 21 22 23 23 24 24 24 24 23 22 22 21 22 23 23 23 23 22 21 20 19 19 19 18 18 18 19 19 19 20 20 20 20 20 20 19
18 18 18 19 19 19 20 20 20 20 20 20 20 20 20 20 19 19 18 18 17 17 17 17 17 17 16 16 16 16 16 17 18 20 21 22 23 24 24 24 24 23 22 21 21 22 23 23 23 22 22 21 20 20 19 19 19 20 20 20 20 20 19 18 18 19 19 19 18
18 18 18 18 19 19 19 19 19 20 20 20 19 19 19 19 19 19 19 18 18 18 18 17 17 16 15 14 14 14 15 16 17 18 20 21 22 23 24 24 24 23 22 22 22 22 23 24 23 23 22 21 20 20 20 20 21 21 22 22 21 20 19 17 16 17 17 17 16
18 18 18 19 19 19 19 19 19 19 19 19 19 19 19 19 19 19 19 18 18 18 18 18 17 16 15 14 13 14 14 15 16 17 19 20 22 23 24 24 24 23 23 22 22 23 24 24 24 23 22 20 20 19 20 20 21 21 22 21 21 20 18 17 16 16 16 16 16
17 17 18 19 19 19 19 19 19 18 18 18 18 18 18 18 19 19 18 18 18 18 18 18 17 16 15 14 14 14 15 15 16 17 18 20 21 22 23 23 23 23 22 22 23 23 24 24 24 23 21 20 19 19 20 20 21 20 20 20 19 19 18 17 16 16 17 17 18
16 17 18 18 19 20 20 20 19 19 18 18 18 18 18 18 18 18 18 18 18 18 18 18 17 17 16 15 15 15 15 16 16 17 18 19 20 21 21 22 22 22 22 22 23 24 25 25 24 22 21 19 19 19 19 20 20 19 18 18 17 18 18 17 17 17 17 18 19
16 17 18 18 19 20 20 20 20 19 19 18 18 18 18 18 18 18 18 18 18 18 18 18 17 17 17 16 16 16 16 16 17 17 18 18 19 20 20 21 21 21 22 22 23 24 25 24 23 21 20 19 19 19 19 19 19 18 17 16 16 16 17 17 17 17 17 18 18
16 17 17 18 19 20 21 21 21 20 19 19 18 18 19 19 19 19 19 19 19 19 18 18 18 18 17 17 17 17 17 17 17 18 18 18 19 19 20 20 21 21 22 23 23 24 24 24 22 21 19 19 19 19 19 19 18 17 15 15 15 16 16 16 16 16 16 16 15
17 17 17 18 19 20 21 21 21 21 20 19 19 18 19 19 19 19 19 20 19 19 19 18 18 18 18 18 18 17 17 17 18 18 19 19 19 20 20 20 21 22 22 23 24 24 23 22 21 20 19 19 18 18 18 17 16 14 13 14 14 15 15 15 15 15 14 13 12
18 18 18 18 19 20 21 21 21 21 20 20 19 19 19 20 20 20 20 20 20 20 19 19 19 19 19 19 18 18 18 18 18 18 19 20 20 20 20 21 21 22 23 24 24 24 23 21 19 18 18 18 17 17 16 14 13 11 11 12 13 13 13 13 13 12 11 11 11
18 18 18 18 19 20 21 21 21 21 21 20 20 19 19 20 20 20 21 21 21 21 20 19 19 20 20 20 20 19 18 18 18 19 19 20 21 21 21 21 22 23 24 24 24 23 22 20 18 17 17 17 17 16 14 12 11 10 11 12 12 11 11 11 11 11 11 12 12
17 18 19 19 19 20 21 21 21 21 21 21 20 20 20 20 20 21 21 22 22 21 21 20 20 20 21 21 21 20 19 19 19 19 19 20 20 21 21 22 23 24 24 24 24 22 21 19 18 17 17 17 16 15 13 12 11 11 12 11 11 11 11 11 11 12 13 13 14
18 18 19 19 19 20 21 21 21 21 21 21 20 20 21 21 21 21 21 22 22 22 21 20 20 21 21 22 21 21 20 19 19 19 19 19 20 20 21 22 22 23 23 23 22 22 21 20 19 18 17 17 16 15 14 13 13 13 13 12 11 12 12 13 13 14 14 15 15
18 19 19 19 19 20 20 21 21 21 20 20 20 21 21 21 21 21 21 22 23 22 21 21 21 21 22 22 22 21 20 20 19 19 19 19 19 20 21 21 22 21 21 21 22 22 22 21 19 18 17 17 17 16 15 15 15 15 14 13 13 12 13 14 15 15 15 15 16
19 19 19 19 19 20 20 21 21 21 20 20 20 21 21 22 21 21 22 22 23 22 21 21 21 22 23 23 22 22 21 20 20 20 19 19 19 20 20 21 21 21 21 22 23 23 22 20 18 17 17 17 17 16 16 16 17 16 16 15 14 13 13 14 15 15 16 16 16
19 19 19 20 20 20 20 21 21 21 21 20 20 21 21 22 22 21 21 22 22 22 22 22 22 23 23 23 23 22 22 21 21 20 20 19 19 20 20 21 22 22 23 24 24 23 22 20 18 16 16 17 17 17 17 17 18 18 17 16 15 13 12 13 14 15 15 15 15
18 19 20 20 21 21 21 21 21 21 21 21 21 21 22 22 22 22 22 22 22 22 22 23 23 23 23 23 23 23 23 22 22 21 20 20 20 21 22 23 24 25 26 25 24 23 21 20 18 16 16 17 17 17 17 18 19 19 18 18 16 14 12 11 12 13 14 14 15
18 19 20 20 21 22 22 21 21 21 22 21 21 21 22 23 23 23 23 23 23 23 24 24 24 24 24 23 23 23 23 23 22 22 21 21 22 23 25 26 27 27 27 25 23 21 20 19 18 17 17 17 18 18 18 19 20 20 19 19 17 15 13 12 12 13 14 15 15
18 18 19 20 21 22 22 22 22 22 22 22 22 22 22 23 23 23 23 23 23 24 25 25 25 25 24 24 23 24 24 24 23 23 23 24 25 26 27 28 28 28 26 24 22 20 19 18 17 17 18 19 19 19 19 20 20 20 20 19 18 16 14 14 13 14 14 15 16
18 18 19 20 21 22 22 23 23 23 23 23 22 22 23 23 24 24 24 24 24 25 26 26 26 26 26 25 24 24 24 24 24 25 26 26 27 28 29 29 29 28 26 23 22 20 19 18 17 17 18 19 20 20 20 20 20 20 20 20 19 17 16 16 16 15 15 16 16
18 19 19 20 21 21 22 23 23 23 23 23 23 23 23 24 24 24 25 24 25 26 26 26 26 27 27 26 25 24 25 25 26 27 27 28 29 29 30 30 30 28 25 23 21 20 19 18 17 17 18 20 21 21 20 21 21 20 20 20 19 18 18 17 17 16 16 16 16
19 19 20 20 20 21 21 22 23 24 24 23 23 24 24 24 25 25 25 25 26 27 27 26 26 27 27 26 25 25 25 27 28 28 29 29 30 30 31 31 30 27 24 23 21 20 19 19 18 18 19 20 21 21 21 21 21 21 20 19 19 18 18 17 17 16 16 16 16
19 19 20 20 19 20 21 22 23 24 24 24 23 24 24 25 25 25 26 26 27 27 27 27 27 27 27 26 25 25 26 27 28 29 30 31 31 32 32 31 29 26 24 22 22 21 20 20 20 19 20 20 21 21 21 21 21 20 20 19 18 18 17 16 16 16 15 15 15
19 19 19 19 19 19 20 21 22 23 24 24 24 24 24 25 26 26 27 27 28 28 27 27 27 28 27 26 26 26 27 28 29 30 31 32 33 33 32 30 27 25 23 23 22 21 21 21 21 20 20 21 21 21 21 21 20 19 19 18 17 16 16 15 15 15 15 14 14
19 19 19 19 19 19 20 20 21 22 23 24 24 24 25 26 27 28 28 29 29 28 27 26 27 28 27 27 27 27 28 29 30 31 32 33 33 32 31 28 26 24 23 23 22 22 22 22 22 21 21 21 22 22 21 20 19 18 18 17 16 15 15 15 15 15 14 13 12
19 19 18 18 18 18 19 19 20 21 23 23 23 24 25 27 28 29 29 30 30 29 27 27 28 28 28 28 28 28 29 30 30 31 32 33 32 31 29 27 25 24 24 23 23 23 23 23 22 22 22 22 22 21 20 19 18 17 16 16 15 15 16 16 16 15 14 13 11
20 19 18 17 17 18 18 19 20 21 22 22 23 24 26 27 28 29 30 30 30 29 28 27 28 28 29 29 29 29 30 30 31 31 32 31 30 29 27 26 25 25 24 24 23 23 23 23 23 23 23 23 22 20 19 18 17 17 16 16 16 16 16 16 16 15 13 12 11
21 20 19 17 16 16 17 18 19 20 21 22 22 24 26 27 28 29 29 30 31 30 29 28 27 28 28 28 29 30 30 31 31 31 30 29 28 27 26 25 25 25 25 24 24 24 24 24 24 24 24 23 22 20 19 18 17 17 17 17 18 18 18 17 16 14 13 12 10
23 21 20 18 17 16 16 17 18 19 20 21 23 25 27 28 28 28 29 30 30 30 29 28 27 27 27 28 29 30 30 31 31 30 29 28 26 25 25 25 25 25 25 25 25 24 24 24 24 24 24 23 21 20 19 18 18 18 18 18 19 19 18 17 16 14 13 12 10
25 24 22 21 18 16 15 16 17 18 20 21 23 25 27 28 28 28 28 29 30 31 30 30 28 28 27 28 28 29 30 30 30 30 28 27 25 24 24 25 25 25 25 25 25 25 25 25 25 25 24 23 22 21 20 19 19 19 19 19 19 18 18 16 15 14 13 12 11
28 26 25 23 20 18 16 15 16 18 20 21 23 25 27 27 28 28 29 29 30 31 31 30 29 28 28 28 28 29 29 30 30 29 28 27 25 24 24 25 26 26 26 26 26 25 25 26 26 25 24 23 22 22 21 21 20 20 19 19 19 18 17 15 15 14 13 12 12
29 29 27 25 23 20 17 15 15 17 19 21 23 25 26 27 28 29 29 30 31 31 31 30 29 28 27 27 28 28 28 29 29 28 28 26 25 24 25 25 26 26 26 26 26 26 26 26 26 25 24 23 22 22 22 22 21 20 20 19 18 17 16 15 15 15 14 13 13
29 29 29 28 26 23 21 19 18 17 18 20 23 25 27 28 28 29 30 30 31 30 30 29 28 27 26 26 27 27 28 28 28 28 27 26 25 25 25 25 26 26 26 26 26 26 26 27 26 25 23 22 22 22 22 22 21 20 20 19 18 18 17 17 16 16 15 15 14
26 28 28 29 28 27 26 25 24 22 20 19 22 25 27 29 29 29 30 30 30 29 29 28 27 26 26 26 26 27 27 27 27 27 26 26 25 25 25 25 26 26 27 26 26 27 27 27 26 24 23 21 21 22 22 22 21 21 20 19 19 18 18 18 17 17 16 16 14
24 25 26 27 28 29 30 29 28 26 23 21 21 24 27 29 29 30 30 29 29 29 28 28 27 27 26 26 26 27 27 27 27 27 26 26 26 25 26 26 26 27 27 27 27 28 28 28 26 24 22 21 22 22 22 22 21 21 20 20 19 19 19 18 18 18 17 16 15
Wind_Direction
179 176 174 173 175 176 178 181 186 189 191 192 193 193 195 197 199 202 204 205 204 203 203 204 206 207 208 208 208 208 207 207 208 209 210 211 212 212 213 215 217 217 216 215 213 213 213 215 219 222 225 227 229 231 233 234 234 234 236 238 239 238 235 234 234 235 237 239 244
180 178 176 176 177 177 177 178 183 187 190 193 194 194 195 197 200 202 204 205 205 204 204 204 205 206 207 208 208 207 207 207 208 209 210 212 213 214 214 215 217 218 218 218 217 215 214 215 217 220 224 226 229 231 232 234 234 233 233 234 234 233 230 228 229 231 234 236 241
182 179 177 177 178 179 179 179 181 184 188 191 193 194 195 197 200 202 203 204 205 204 204 205 204 205 206 208 208 208 208 208 208 209 210 212 214 215 215 216 217 219 220 220 220 218 216 215 218 221 224 228 230 233 234 235 234 232 231 230 230 229 227 227 228 230 233 237 243
183 181 179 178 179 181 182 181 182 184 186 188 190 191 192 195 199 202 203 203 203 204 205 205 204 205 206 207 208 208 208 209 209 210 212 213 215 216 216 217 218 219 220 221 221 220 218 218 220 224 227 230 233 236 237 236 234 232 230 231 232 232 233 234 235 236 239 243 249
184 183 181 180 181 183 185 185 185 186 187 188 187 188 188 191 195 198 201 202 203 205 206 206 206 205 206 207 209 209 210 210 211 212 213 215 216 216 217 218 219 220 221 221 222 221 221 221 224 227 230 232 235 237 238 237 234 232 232 234 235 237 238 238 236 237 241 247 251
185 184 183 183 183 184 186 189 189 189 189 189 188 187 187 188 191 196 199 201 203 205 206 207 207 207 207 208 210 211 212 212 213 214 215 217 217 217 218 219 220 221 222 222 222 222 223 224 227 229 231 234 235 236 236 236 234 233 233 235 238 240 240 238 235 235 238 243 246
185 184 184 184 184 185 188 190 191 192 191 191 190 189 189 189 192 196 200 202 204 205 206 208 209 210 210 210 212 213 214 214 214 215 216 218 218 218 218 219 221 222 222 222 221 222 224 226 227 230 232 234 235 234 234 233 233 233 233 235 238 242 244 242 238 235 235 238 241
186 186 185 185 185 186 188 190 192 192 192 193 193 193 192 192 193 197 200 203 204 206 208 209 211 212 213 213 213 213 212 212 213 213 215 216 217 217 218 219 220 221 222 221 220 220 223 226 228 230 232 233 233 233 233 232 232 232 232 233 236 240 244 244 239 235 233 234 235
187 187 187 186 186 187 189 190 191 192 193 194 195 196 196 196 196 198 200 202 205 207 209 209 211 213 214 214 212 209 207 206 207 208 210 212 213 214 216 217 219 220 220 219 218 219 222 225 228 230 232 233 233 233 234 234 233 233 233 233 235 238 240 240 236 232 229 230 229
189 189 188 187 187 187 188 190 191 193 194 195 196 197 197 198 199 200 201 203 206 208 209 210 211 213 213 210 206 202 201 200 201 202 204 206 208 211 213 215 217 217 217 215 215 216 220 225 228 230 232 232 233 234 236 237 237 237 236 235 235 235 235 234 231 229 229 231 232
193 191 190 189 188 188 188 189 191 193 194 194 195 196 197 199 200 200 200 203 206 208 209 210 211 211 210 206 201 198 197 197 197 198 200 202 204 207 209 212 213 214 213 211 211 214 218 224 227 229 230 230 232 234 237 239 241 241 240 238 235 232 230 228 228 230 234 238 241
197 194 192 191 189 188 188 189 191 192 194 194 194 194 196 199 200 199 198 200 204 208 209 209 210 210 208 204 200 198 196 196 196 197 198 199 201 203 205 208 209 209 209 208 208 212 217 223 226 228 228 228 230 232 236 239 242 243 242 238 234 230 227 226 227 231 236 241 245
200 197 194 192 190 189 188 189 191 193 194 194 194 193 195 198 199 197 196 198 202 206 208 208 208 209 208 206 203 200 198 197 197 198 198 199 200 201 203 204 205 205 205 205 207 211 216 222 225 227 228 228 229 231 234 238 241 242 241 236 230 227 226 226 227 231 237 242 244
202 198 195 193 191 189 189 190 192 194 195 195 194 194 195 197 198 196 195 196 200 204 206 206 206 207 209 208 206 204 201 199 198 198 199 200 201 201 202 202 202 202 202 203 207 211 216 221 224 227 229 230 230 231 233 236 240 241 237 231 226 223 223 226 229 233 236 239 238
201 199 196 193 192 190 190 190 192 194 195 195 195 194 195 196 197 196 195 195 198 202 204 205 205 206 208 209 209 207 204 201 199 199 199 200 202 203 203 202 201 200 201 203 208 213 218 221 224 227 229 231 231 231 231 235 237 236 232 227 224 223 223 226 230 233 232 227 221
201 200 197 195 193 192 191 191 192 194 196 196 195 195 194 196 197 196 194 194 196 200 202 204 205 205 207 208 209 209 206 203 201 200 200 200 202 203 203 203 201 201 202 205 210 214 219 222 225 227 230 231 230 229 229 231 232 229 225 223 223 223 223 225 228 226 218 210 206
202 201 199 196 195 193 192 191 192 194 196 196 196 195 194 196 197 196 195 194 195 198 201 204 206 206 206 207 209 209 207 204 202 201 201 201 202 203 203 203 203 203 205 208 212 215 219 222 224 227 229 229 228 226 224 223 221 219 218 218 218 215 213 215 217 213 207 205 207
204 203 201 199 196 194 193 192 192 194 196 197 196 195 195 196 197 197 195 194 195 197 200 204 206 206 206 206 208 208 207 205 203 202 202 202 202 203 203 203 204 207 209 212 214 217 218 221 222 223 224 225 224 221 217 212 210 210 210 210 207 201 198 199 202 205 207 209 213
205 205 204 202 199 196 193 193 193 194 196 197 197 195 195 196 198 198 196 195 196 197 200 203 205 206 206 207 208 208 207 205 204 202 202 201 201 202 203 203 206 209 212 215 216 218 220 221 221 219 218 218 217 215 210 205 203 202 201 199 196 194 192 194 199 206 212 216 218
203 205 205 204 201 198 195 193 193 195 197 197 197 196 195 196 198 199 198 196 196 197 200 203 205 206 206 206 207 206 206 204 203 201 200 200 200 200 201 203 206 210 214 216 218 220 221 222 220 217 215 214 212 209 205 203 201 198 194 193 195 196 196 197 202 210 217 220 221
202 203 205 206 203 200 196 194 194 195 196 198 197 196 195 195 198 200 199 197 196 197 199 202 206 207 206 206 205 204 203 202 201 199 198 198 198 198 200 203 206 210 214 218 220 221 223 223 221 216 213 211 208 205 202 202 202 198 194 194 199 203 203 202 205 212 218 221 223
203 203 204 205 204 202 199 197 196 195 196 197 198 197 196 196 198 200 200 198 197 196 197 202 207 209 209 207 205 204 202 200 198 197 196 195 195 197 200 204 207 211 215 218 220 222 223 223 221 216 211 208 205 202 201 203 204 201 198 198 203 208 210 207 208 212 217 220 221
207 205 204 204 204 203 202 200 198 196 195 197 199 199 197 197 198 200 201 200 197 195 196 201 207 211 212 210 207 204 201 198 196 194 193 192 192 195 201 207 211 215 217 219 221 222 222 222 220 215 209 205 202 200 201 204 206 205 202 201 205 212 216 215 214 216 217 219 219
210 207 204 203 203 203 202 201 199 197 195 197 199 200 199 198 198 199 200 200 198 195 196 201 207 212 214 213 210 206 202 199 194 191 189 190 193 199 205 211 215 217 219 221 222 224 224 222 219 213 207 203 201 201 203 207 208 207 204 203 207 213 220 225 225 223 221 218 216
211 209 207 204 202 201 202 202 200 198 196 196 198 200 200 199 198 199 199 200 198 195 196 200 206 211 214 214 211 208 204 199 194 190 190 194 200 205 210 214 216 218 219 221 223 225 226 225 221 214 206 202 201 203 206 208 208 207 205 204 208 214 221 227 233 231 225 218 214
211 212 211 207 203 200 200 201 200 199 197 196 197 199 200 199 198 198 199 199 197 196 197 201 206 210 214 214 212 208 204 200 196 196 198 202 206 210 213 215 217 217 218 220 223 225 226 225 222 216 209 204 203 205 207 206 206 205 204 205 209 215 222 228 232 232 226 217 211
210 211 212 211 206 202 199 200 200 199 196 195 196 198 200 199 199 199 199 199 197 196 198 202 206 211 214 215 212 207 203 201 201 203 207 209 211 212 214 216 216 217 218 220 222 223 224 223 222 218 213 208 207 208 208 205 204 203 203 206 210 216 223 228 231 228 222 213 208
210 209 210 211 208 204 201 200 200 198 196 194 195 197 199 200 199 200 200 199 197 197 199 203 207 212 215 215 212 208 205 204 206 208 211 213 214 215 216 217 217 217 218 220 221 222 221 221 221 218 215 211 210 210 209 207 205 204 205 207 212 217 222 227 228 224 217 210 207
209 208 208 209 207 206 205 203 201 198 196 194 194 196 198 200 200 201 200 199 198 198 200 204 208 212 215 215 213 210 209 209 209 211 212 213 215 217 218 218 217 217 218 219 220 220 219 219 219 218 216 214 212 211 210 209 207 207 207 210 214 219 223 224 222 217 213 210 208
209 207 207 206 206 206 205 205 203 200 197 195 194 195 197 199 200 201 201 199 198 199 202 205 209 212 214 215 214 213 212 212 212 213 213 214 215 217 218 217 216 216 217 218 219 218 218 217 216 216 215 214 214 213 211 209 209 209 210 212 217 221 223 222 217 213 210 210 210
208 206 205 205 205 204 204 204 204 203 200 197 195 195 196 198 199 200 200 200 200 201 204 207 210 212 214 216 217 216 215 214 214 214 215 216 216 217 217 216 215 216 217 218 218 218 216 215 214 213 213 214 214 213 211 208 207 208 211 214 218 221 221 217 212 210 209 210 211
207 205 204 204 203 203 203 202 201 202 202 199 196 196 197 198 199 200 201 201 201 202 204 207 211 213 215 217 218 219 218 217 216 216 216 217 217 217 216 215 215 216 218 218 218 217 215 213 212 211 211 211 211 211 209 206 205 207 210 213 216 217 215 211 208 207 208 210 212
206 203 201 201 202 203 203 202 200 200 200 199 198 198 199 200 200 201 201 202 202 203 205 208 212 215 217 219 220 220 220 220 219 218 218 219 218 216 215 214 216 217 218 219 218 216 214 212 210 209 209 209 208 207 206 204 204 205 207 208 210 210 208 206 205 205 207 210 214
205 201 198 197 199 202 205 205 203 200 199 198 200 202 203 204 203 202 201 202 203 204 206 210 214 218 220 222 223 223 222 222 221 221 221 220 218 216 214 214 216 218 219 219 218 216 213 210 208 207 207 206 206 204 202 202 203 203 204 205 204 203 202 202 202 204 207 211 211
205 200 195 192 193 199 204 207 205 202 199 199 202 204 206 208 208 207 205 204 204 204 207 211 215 220 223 225 226 226 225 224 224 224 223 221 219 216 214 215 217 218 219 219 218 215 212 208 207 206 206 206 204 202 200 200 201 202 203 203 202 200 199 199 200 203 205 207 204
206 201 195 191 190 193 200 205 206 204 202 202 202 203 206 210 212 212 210 208 206 205 207 211 216 220 223 226 227 228 228 227 227 226 225 223 220 216 215 215 217 218 218 219 217 214 210 207 206 206 207 206 204 201 198 198 199 201 202 201 200 198 197 197 199 200 201 199 197
209 205 199 195 192 192 198 205 208 208 207 206 204 204 205 208 211 213 213 211 209 208 210 214 217 221 224 227 228 228 229 229 228 227 226 224 221 218 216 216 216 217 217 218 216 213 209 206 205 206 207 207 204 200 197 196 197 199 199 199 198 197 196 197 198 197 196 194 192
213 210 206 203 201 202 205 211 215 215 213 211 208 207 206 208 209 211 213 214 214 214 215 218 220 223 226 227 228 228 229 229 229 228 227 225 222 219 217 216 215 216 216 216 215 211 208 205 205 206 208 207 204 200 197 196 196 197 197 197 197 196 195 196 196 195 193 191 189
218 215 212 211 211 212 215 220 224 224 221 217 213 210 209 209 210 212 214 217 219 220 221 222 223 225 226 227 228 228 228 228 229 228 228 226 223 221 218 216 215 215 215 215 213 210 206 204 204 205 206 206 204 200 197 196 196 196 197 197 195 194 194 195 195 194 192 190 187
221 220 217 215 215 216 218 222 227 229 228 223 216 211 210 211 213 214 216 218 221 223 225 226 226 226 226 226 226 227 227 227 228 228 227 226 224 222 219 217 216 215 215 214 211 208 205 203 203 203 204 204 202 199 197 197 197 197 197 196 196 194 194 195 196 195 192 188 186
224 224 221 218 216 215 215 217 221 225 227 226 221 215 213 213 214 215 216 218 220 223 225 226 227 226 225 225 225 225 226 225 225 226 226 226 224 222 220 217 216 215 214 213 209 206 203 202 201 202 202 202 200 199 198 198 198 197 197 197 197 196 196 196 196 195 191 188 185
Height
1429 1430 1431 1432 1433 1435 1436 1437 1438 1439 1440 1441 1442 1443 1444 1445 1446 1447 1448 1449 1451 1452 1453 1455 1457 1458 1460 1461 1463 1464 1466 1467 1468 1470 1471 1473 1474 1475 1477 1478 1479 1480 1481 1483 1484 1485 1486 1487 1487 1488 1488 1489 1490 1490 1491 1492 1493 1493 1494 1494 1495 1496 1496 1497 1498 1498 1498 1498 1498
1428 1430 1431 1432 1433 1435 1436 1437 1438 1438 1440 1441 1442 1443 1443 1444 1445 1446 1448 1449 1450 1452 1453 1455 1457 1458 1459 1461 1462 1464 1465 1467 1468 1469 1471 1472 1473 1475 1476 1477 1478 1479 1481 1482 1483 1484 1485 1486 1486 1487 1487 1488 1489 1490 1490 1491 1492 1493 1493 1493 1494 1495 1495 1496 1497 1497 1497 1497 1497
1428 1430 1431 1432 1433 1435 1436 1437 1438 1438 1440 1441 1442 1443 1443 1444 1445 1446 1447 1449 1450 1452 1453 1454 1456 1458 1459 1460 1462 1463 1465 1466 1467 1468 1470 1471 1473 1474 1475 1477 1478 1479 1480 1481 1483 1484 1485 1485 1485 1486 1486 1487 1488 1489 1490 1490 1491 1492 1493 1493 1493 1494 1494 1495 1496 1496 1496 1496 1497
1428 1429 1430 1432 1433 1434 1435 1436 1438 1438 1440 1441 1442 1443 1443 1444 1445 1446 1448 1449 1450 1452 1453 1454 1456 1457 1458 1460 1461 1463 1464 1466 1467 1468 1469 1471 1472 1473 1475 1476 1477 1478 1479 1481 1482 1483 1484 1484 1484 1485 1486 1487 1488 1488 1489 1490 1491 1491 1492 1492 1493 1493 1494 1494 1495 1495 1495 1495 1496
1428 1429 1430 1431 1433 1434 1435 1436 1437 1438 1439 1441 1442 1443 1444 1445 1445 1446 1448 1449 1450 1451 1452 1454 1455 1457 1458 1459 1461 1462 1464 1465 1467 1468 1469 1470 1472 1473 1474 1475 1477 1478 1479 1480 1481 1482 1483 1483 1483 1484 1485 1486 1487 1488 1488 1489 1490 1491 1491 1492 1492 1493 1493 1494 1494 1494 1494 1495 1495
1428 1429 1430 1431 1432 1433 1434 1436 1437 1438 1439 1440 1442 1443 1444 1444 1445 1446 1447 1448 1450 1451 1452 1453 1455 1456 1458 1459 1460 1462 1463 1465 1466 1467 1468 1470 1471 1472 1473 1475 1476 1477 1478 1479 1480 1481 1482 1482 1482 1483 1484 1485 1486 1487 1488 1488 1489 1490 1490 1491 1491 1492 1493 1493 1493 1493 1493 1494 1495
1428 1428 1429 1431 1432 1433 1434 1435 1437 1438 1439 1440 1441 1442 1443 1444 1445 1446 1447 1448 1449 1451 1452 1453 1454 1456 1457 1458 1460 1461 1463 1464 1465 1466 1468 1469 1470 1472 1473 1474 1475 1476 1478 1479 1480 1480 1480 1481 1481 1482 1483 1484 1485 1486 1487 1488 1488 1489 1489 1490 1491 1492 1492 1492 1493 1493 1493 1493 1494
1427 1428 1429 1430 1431 1433 1433 1435 1436 1437 1438 1439 1441 1442 1443 1444 1445 1446 1447 1448 1449 1451 1452 1453 1454 1455 1457 1458 1459 1460 1462 1463 1464 1465 1467 1468 1469 1471 1472 1473 1474 1475 1477 1478 1479 1479 1479 1479 1480 1481 1482 1483 1484 1485 1486 1486 1487 1488 1488 1489 1490 1491 1492 1492 1492 1492 1493 1493 1493
1427 1428 1429 1430 1431 1432 1433 1434 1435 1437 1438 1439 1440 1441 1443 1444 1445 1446 1447 1448 1449 1450 1452 1453 1454 1455 1456 1458 1458 1460 1461 1462 1463 1464 1466 1467 1468 1470 1471 1472 1473 1475 1476 1477 1478 1478 1478 1478 1479 1480 1481 1482 1483 1484 1484 1485 1486 1486 1487 1488 1489 1490 1491 1491 1491 1492 1492 1492 1493
1427 1428 1429 1430 1431 1432 1433 1434 1435 1436 1437 1438 1440 1441 1442 1443 1444 1446 1447 1448 1449 1450 1451 1453 1454 1455 1456 1457 1458 1459 1460 1462 1463 1464 1465 1466 1468 1469 1470 1471 1473 1473 1475 1476 1477 1477 1477 1477 1478 1479 1480 1481 1482 1483 1483 1483 1484 1485 1486 1487 1488 1489 1490 1490 1491 1491 1491 1491 1492
1427 1428 1429 1430 1431 1432 1433 1434 1435 1436 1437 1438 1439 1441 1442 1443 1444 1445 1447 1448 1449 1450 1451 1453 1453 1455 1456 1457 1458 1459 1460 1461 1462 1463 1464 1466 1467 1468 1469 1470 1472 1473 1474 1475 1475 1476 1476 1476 1477 1478 1479 1480 1481 1482 1482 1482 1483 1484 1485 1486 1487 1488 1489 1489 1489 1490 1490 1490 1491
1427 1428 1429 1430 1431 1432 1433 1434 1435 1436 1437 1438 1439 1440 1441 1443 1444 1445 1447 1448 1449 1450 1451 1452 1453 1454 1455 1456 1457 1458 1459 1461 1462 1463 1464 1465 1466 1468 1468 1470 1471 1472 1473 1474 1474 1475 1475 1475 1476 1477 1478 1479 1480 1480 1481 1481 1482 1483 1484 1485 1486 1487 1488 1488 1489 1489 1489 1490 1490
1426 1428 1428 1429 1430 1431 1432 1433 1434 1435 1436 1438 1439 1440 1441 1442 1443 1445 1446 1448 1448 1449 1451 1452 1453 1454 1455 1456 1457 1458 1459 1460 1461 1462 1463 1464 1466 1467 1468 1469 1470 1471 1472 1473 1473 1473 1473 1474 1475 1476 1478 1478 1479 1479 1480 1481 1482 1482 1483 1484 1485 1486 1487 1487 1488 1488 1489 1489 1490
1426 1427 1428 1429 1430 1431 1432 1433 1434 1435 1436 1437 1438 1439 1441 1442 1443 1444 1446 1447 1448 1449 1450 1452 1453 1454 1455 1456 1457 1458 1459 1460 1461 1462 1463 1464 1465 1466 1467 1468 1469 1470 1471 1472 1472 1472 1473 1473 1474 1476 1477 1477 1478 1479 1479 1480 1481 1482 1483 1483 1484 1485 1486 1487 1487 1488 1488 1489 1489
1425 1427 1428 1428 1429 1430 1431 1432 1433 1434 1435 1437 1438 1439 1440 1441 1443 1444 1446 1447 1448 1449 1450 1451 1453 1454 1454 1455 1456 1457 1458 1459 1460 1461 1463 1463 1464 1465 1466 1468 1468 1469 1470 1471 1471 1471 1472 1473 1474 1475 1476 1477 1477 1478 1479 1480 1481 1481 1482 1483 1484 1484 1485 1486 1487 1487 1488 1488 1489
1425 1426 1427 1428 1428 1429 1430 1431 1432 1433 1435 1436 1437 1438 1440 1441 1442 1443 1445 1447 1448 1449 1450 1451 1452 1453 1454 1455 1456 1457 1458 1459 1460 1461 1462 1463 1463 1465 1466 1467 1468 1468 1469 1470 1470 1471 1471 1473 1474 1474 1475 1476 1477 1478 1478 1479 1480 1481 1482 1483 1483 1484 1485 1485 1486 1487 1488 1488 1488
1424 1425 1426 1427 1428 1428 1429 1430 1432 1433 1434 1435 1437 1438 1439 1440 1442 1443 1444 1446 1447 1448 1449 1450 1452 1453 1453 1454 1455 1456 1457 1458 1459 1460 1461 1462 1463 1464 1465 1466 1467 1468 1468 1469 1469 1470 1471 1472 1473 1474 1475 1475 1476 1477 1478 1479 1480 1481 1481 1482 1483 1483 1484 1485 1486 1486 1487 1488 1488
1423 1424 1426 1426 1427 1428 1428 1430 1431 1432 1433 1435 1436 1438 1439 1440 1441 1442 1444 1445 1447 1448 1449 1450 1451 1452 1453 1453 1454 1455 1456 1457 1458 1459 1460 1461 1462 1463 1464 1465 1466 1467 1467 1468 1468 1469 1470 1471 1473 1473 1474 1475 1476 1477 1478 1479 1479 1480 1481 1481 1482 1483 1484 1484 1485 1486 1486 1487 1488
1423 1424 1425 1426 1426 1427 1428 1429 1430 1431 1433 1434 1436 1437 1438 1439 1440 1442 1443 1445 1446 1447 1448 1449 1450 1451 1452 1453 1454 1455 1456 1457 1458 1458 1460 1461 1462 1463 1463 1464 1465 1466 1466 1467 1468 1469 1469 1470 1471 1473 1473 1474 1475 1476 1477 1478 1479 1480 1480 1481 1482 1483 1483 1484 1484 1485 1485 1486 1487
1422 1423 1424 1425 1426 1427 1428 1428 1430 1431 1432 1433 1435 1436 1438 1439 1440 1441 1443 1444 1445 1447 1448 1449 1450 1450 1451 1452 1453 1454 1455 1456 1457 1458 1459 1460 1461 1462 1463 1463 1464 1465 1466 1466 1467 1467 1468 1469 1470 1472 1473 1474 1475 1476 1477 1478 1479 1479 1480 1481 1482 1482 1483 1483 1483 1484 1484 1485 1486
1422 1423 1423 1424 1425 1426 1427 1428 1429 1430 1432 1433 1434 1436 1437 1438 1439 1440 1442 1443 1445 1446 1447 1448 1449 1450 1451 1452 1453 1453 1454 1455 1457 1458 1458 1459 1460 1461 1462 1463 1463 1464 1464 1465 1465 1466 1467 1468 1470 1471 1472 1473 1474 1475 1476 1477 1478 1479 1479 1480 1481 1482 1482 1482 1483 1483 1483 1484 1485
1421 1422 1423 1424 1425 1426 1427 1428 1428 1430 1431 1432 1433 1435 1436 1438 1439 1440 1441 1443 1444 1445 1447 1448 1448 1449 1450 1451 1452 1453 1454 1455 1456 1457 1458 1459 1460 1461 1461 1462 1462 1462 1463 1463 1463 1465 1466 1468 1469 1471 1472 1473 1474 1475 1476 1477 1478 1478 1479 1480 1480 1481 1481 1482 1482 1483 1483 1483 1484
1420 1421 1422 1423 1424 1425 1426 1427 1428 1429 1430 1431 1433 1434 1435 1437 1438 1439 1440 1442 1443 1445 1446 1447 1448 1448 1449 1450 1451 1452 1453 1454 1455 1457 1458 1458 1459 1460 1460 1460 1460 1460 1460 1461 1462 1464 1465 1467 1468 1470 1471 1472 1473 1474 1475 1476 1477 1477 1478 1479 1480 1480 1481 1481 1482 1482 1482 1483 1483
1420 1421 1421 1422 1423 1424 1425 1426 1427 1428 1429 1430 1432 1433 1434 1436 1437 1438 1440 1441 1442 1444 1445 1446 1447 1448 1448 1450 1451 1452 1453 1454 1455 1456 1457 1458 1458 1458 1458 1458 1458 1458 1459 1460 1462 1463 1465 1466 1468 1469 1470 1471 1472 1473 1474 1475 1475 1476 1477 1478 1479 1479 1480 1480 1481 1481 1482 1482 1482
1419 1420 1421 1422 1422 1423 1424 1425 1426 1427 1428 1429 1431 1432 1433 1435 1436 1438 1439 1440 1442 1443 1444 1445 1446 1447 1448 1449 1450 1451 1452 1453 1454 1455 1456 1456 1456 1456 1456 1456 1457 1458 1458 1460 1462 1463 1464 1466 1467 1468 1469 1470 1471 1472 1473 1474 1474 1475 1476 1477 1478 1478 1479 1480 1480 1481 1481 1481 1481
1418 1419 1420 1421 1421 1422 1423 1424 1425 1426 1427 1428 1430 1431 1432 1434 1435 1436 1438 1439 1441 1442 1443 1444 1445 1446 1447 1448 1449 1450 1451 1452 1453 1453 1454 1454 1454 1455 1455 1455 1456 1457 1458 1460 1462 1463 1464 1465 1467 1468 1468 1469 1470 1471 1472 1473 1473 1474 1475 1476 1477 1478 1478 1479 1479 1480 1480 1481 1481
1418 1418 1419 1420 1420 1421 1422 1423 1424 1425 1426 1428 1429 1430 1431 1433 1434 1435 1437 1438 1440 1441 1442 1443 1444 1445 1446 1447 1448 1449 1450 1451 1452 1452 1452 1453 1453 1453 1454 1454 1455 1456 1458 1460 1461 1463 1464 1465 1466 1467 1468 1469 1469 1470 1471 1472 1473 1473 1474 1475 1476 1477 1477 1478 1478 1479 1480 1480 1481
1416 1417 1418 1419 1420 1420 1421 1422 1423 1424 1425 1426 1428 1429 1430 1432 1433 1434 1436 1437 1438 1440 1441 1442 1443 1444 1445 1446 1447 1448 1449 1449 1450 1451 1451 1452 1452 1452 1453 1453 1454 1456 1458 1459 1461 1462 1463 1464 1465 1466 1467 1468 1469 1470 1470 1471 1472 1473 1473 1474 1475 1476 1476 1477 1478 1478 1479 1480 1480
1416 1416 1417 1418 1419 1419 1420 1421 1421 1423 1424 1425 1427 1428 1429 1430 1432 1433 1434 1436 1437 1438 1440 1441 1442 1443 1444 1445 1446 1447 1448 1448 1449 1449 1450 1450 1451 1451 1452 1453 1454 1456 1458 1459 1460 1461 1463 1463 1464 1465 1466 1467 1468 1468 1469 1470 1471 1472 1473 1473 1474 1475 1476 1477 1477 1478 1479 1479 1480
1415 1415 1416 1417 1418 1418 1419 1420 1420 1422 1423 1424 1426 1427 1428 1429 1430 1432 1433 1434 1436 1437 1438 1440 1441 1442 1443 1443 1444 1445 1446 1447 1447 1448 1448 1449 1449 1450 1451 1452 1454 1456 1457 1458 1459 1460 1462 1463 1463 1464 1465 1466 1467 1468 1468 1469 1470 1471 1472 1473 1474 1475 1476 1476 1477 1478 1478 1479 1480
1414 1414 1415 1416 1417 1418 1418 1419 1420 1421 1422 1423 1425 1426 1427 1428 1429 1430 1432 1433 1434 1436 1438 1439 1440 1441 1442 1442 1443 1444 1444 1445 1446 1447 1447 1448 1448 1449 1451 1452 1454 1455 1456 1458 1458 1460 1461 1462 1463 1463 1464 1465 1466 1466 1467 1468 1469 1470 1471 1472 1473 1474 1475 1476 1477 1477 1478 1478 1479
1413 1414 1414 1415 1416 1417 1418 1418 1419 1421 1422 1423 1424 1425 1426 1427 1428 1429 1430 1432 1433 1435 1437 1438 1439 1440 1440 1441 1442 1443 1443 1444 1445 1445 1446 1447 1448 1449 1451 1452 1453 1455 1456 1457 1458 1459 1460 1461 1462 1462 1463 1464 1465 1466 1467 1468 1468 1469 1470 1471 1472 1473 1474 1475 1476 1477 1477 1478 1478
1413 1413 1413 1414 1415 1416 1417 1418 1419 1420 1421 1422 1423 1424 1425 1425 1427 1428 1429 1431 1432 1434 1435 1437 1438 1438 1439 1440 1440 1441 1442 1443 1443 1444 1445 1446 1447 1449 1450 1452 1453 1454 1455 1456 1457 1458 1459 1460 1460 1461 1462 1463 1464 1465 1466 1467 1468 1469 1470 1471 1472 1473 1473 1474 1475 1476 1477 1478 1478
1412 1412 1413 1413 1414 1415 1416 1417 1418 1419 1420 1421 1422 1423 1424 1424 1426 1427 1428 1430 1431 1433 1434 1435 1436 1437 1438 1438 1439 1440 1441 1442 1443 1443 1444 1446 1447 1448 1450 1451 1452 1453 1454 1455 1456 1457 1458 1458 1459 1460 1461 1462 1463 1464 1465 1466 1467 1468 1469 1470 1471 1472 1473 1473 1474 1475 1476 1477 1478
1411 1411 1411 1412 1413 1414 1415 1416 1417 1418 1419 1420 1422 1422 1423 1423 1425 1426 1428 1429 1430 1432 1433 1434 1435 1436 1437 1438 1438 1439 1440 1441 1442 1443 1444 1445 1447 1448 1449 1450 1451 1452 1453 1453 1455 1455 1456 1457 1458 1459 1460 1461 1463 1463 1465 1466 1466 1467 1468 1469 1470 1471 1472 1473 1474 1475 1476 1477 1478
1409 1410 1410 1410 1411 1412 1413 1414 1416 1417 1418 1419 1420 1421 1422 1423 1424 1425 1427 1428 1429 1430 1431 1433 1434 1435 1436 1437 1438 1438 1439 1440 1441 1442 1443 1444 1446 1447 1448 1449 1450 1451 1452 1453 1453 1454 1455 1456 1457 1458 1459 1460 1462 1463 1464 1465 1466 1467 1468 1468 1469 1470 1471 1473 1474 1475 1476 1477 1478
1408 1409 1409 1409 1409 1410 1411 1413 1414 1416 1418 1418 1419 1420 1421 1422 1423 1425 1426 1427 1428 1429 1430 1431 1432 1433 1434 1435 1436 1437 1438 1438 1440 1441 1442 1443 1445 1446 1447 1448 1449 1450 1451 1451 1452 1453 1454 1455 1456 1457 1458 1459 1460 1462 1463 1464 1465 1466 1467 1468 1469 1470 1471 1472 1473 1474 1475 1476 1477
1406 1407 1408 1408 1407 1407 1408 1411 1413 1415 1417 1418 1418 1419 1420 1421 1423 1423 1424 1425 1426 1427 1428 1430 1431 1432 1433 1434 1435 1436 1437 1438 1439 1440 1441 1443 1444 1445 1446 1447 1448 1448 1449 1450 1451 1452 1453 1454 1455 1456 1457 1458 1459 1461 1462 1463 1464 1465 1466 1468 1468 1470 1471 1472 1473 1474 1475 1476 1476
1404 1405 1406 1406 1406 1405 1407 1409 1412 1414 1415 1417 1418 1419 1420 1420 1421 1422 1423 1424 1425 1426 1427 1428 1430 1431 1432 1433 1434 1435 1436 1437 1438 1439 1440 1441 1443 1444 1445 1445 1446 1447 1448 1449 1450 1451 1452 1453 1454 1456 1457 1458 1459 1460 1461 1462 1463 1464 1466 1467 1468 1469 1470 1471 1472 1473 1474 1475 1476
1402 1403 1403 1404 1404 1404 1405 1407 1410 1413 1414 1415 1417 1418 1418 1419 1419 1420 1421 1423 1424 1425 1426 1428 1429 1430 1431 1432 1433 1434 1435 1436 1437 1438 1439 1440 1441 1442 1443 1444 1445 1446 1447 1448 1449 1450 1451 1453 1453 1455 1456 1457 1458 1459 1460 1461 1463 1463 1465 1466 1467 1468 1469 1470 1471 1473 1473 1474 1475
1400 1400 1401 1402 1403 1403 1404 1406 1408 1410 1413 1414 1415 1416 1417 1418 1418 1419 1420 1421 1423 1424 1425 1426 1427 1428 1429 1431 1431 1432 1433 1434 1435 1437 1438 1439 1440 1441 1442 1443 1443 1444 1446 1447 1448 1449 1450 1451 1453 1454 1455 1456 1457 1458 1459 1461 1462 1463 1464 1465 1466 1467 1468 1469 1471 1472 1473 1473 1474